Погода в Буденновске

Погода в Буденновске : погода сейчас, прогноз погоды и архив. Всё, что Вы хотите узнать о погоде в Буденновске!

Хотите узнать прогноз погоды в Буденновске? Тогда Вам сюда: Погода в Буденновске

Поиск расширенной информации на нашем сайте:

Другие новости

Новости СМИ2

Главная страница сайта

Новости сайта

03.07.2017

Напоминаем, что на нашем специализированном сайте Метеоцентр.Азия вы можете получить высокодетализированные автоматические прогнозы погоды по пунктам России, СНГ и мира в авиационном формате (включающие направление и скорость ветра, видимость, явления погоды, количество и форму облачности, нижнюю и верхнюю границу облачности).

Рекомендуем: реставрация ванн

Погода в Буденновске - сегодня

Время (UTC), дата Ветер
(°,м/с) 
Видим.   Явления Облачность Т
(°С)
Тd
(°С)
f(%) Тe
(°С)
Pmin
(гПа)
dP
(гПа)
Po
(мм)
O2
(г/м3)
Тmin Tmax R s Состояние
почвы
00 19.09.17 060 (СВ) 10 км    ясно 
+18 +14.6 81 +27  1013  0.1  748  280           
03 19.09.17 360 (С) 4000 м  дымка  4/0 средняя 
[Ac trans]
+15.1 +13.8 92 +23  1013.3  0.2  748  283  +14.9         
06 19.09.17 250 (З) 10 км    3/0 верхняя 
[Ci fib]
+22.1 +15 64 +31  1013.5  0.5  748  276           
09 19.09.17 290 (З) 10 км    4/0 верхняя 
[Ci fib]
+30.3 +12 32 +34  1012.4  -0.7  748  269           
12 19.09.17 330 (СЗ) 10 км    3/0 верхняя 
[Ci fib]
+34.1 +8.1 20 +34  1011.2  -1  747  266           
15 19.09.17 360 (С) 10 км    ясно 
+29.6 +7.2 24 +30  1011.9  0.5  748  271    +34.2       
18 19.09.17 340 (С) 20000 м    ясно 
+21.3 +10.7 51 +23  1013.2  0.8  748  278           
21 19.09.17 тихо ()   20000 м    ясно 
+18 +9.6 58 +19  1013.2  0.1  748  281           
00 20.09.17 340 (С) 20000 м    ясно 
+20.1 +8.4 47 +20  1013.3  0.2  748  279           
03 20.09.17 200 (Ю) 10 км    ясно 
+14.5 +7.4 62 +16  1014.2  0.6  749  285  +14.5        сухая 
06 20.09.17 250 (З) 10 км    ясно 
+26.5 +9.2 34 +27  1014.3  0.7  749  274  +14.4         
09 20.09.17 290 (З) 10 км    ясно 
+32.4 +8.8 23 +32  1013  -1  748  268           
12 20.09.17 010 (С) 10 км    ясно 
+34.3 +4.6 16 +34  1011.9  -0.9  748  267           
15 20.09.17 040 (СВ) 10 км    ясно 
+30.7 +5.5 20 +31  1012.3  0.2  748  270    +34.7       
18 20.09.17 070 (В) 20000 м    ясно 
+24.5 +7.1 33 +25  1013.3  0.7  748  276           
21 20.09.17 350 (С) 20000 м    ясно 
+21.1 +6.3 38 +21  1013.2  -0.3  748  279           
00 21.09.17 010 (С) 20000 м    ясно 
+18.2 +8 51 +20  1013.2  -0.3  748  281           
03 21.09.17 030 (СВ) 10 км    ясно 
+16.6 +9.9 65 +19  1013.7  0.4  748  282  +16.6        сухая 
06 21.09.17 070 (В) 10 км    ясно 
+24.2 +15.7 59 +34  1013.8  0.5  749  274           
09 21.09.17 060 (СВ) 10 км    ясно 
+29.4 +16.5 46 +41  1012.4  -1.1  748  269           
12 21.09.17 100 (В) 5{11}  10 км    ясно 
+32.9 +10.6 26 +35  1010.6  -1.6  747  267           
15 21.09.17 080 (В) 4{11}  10 км    ясно 
+29.7 +1.3 16 +30  1011.1  0.3  747  271    +33.2       
18 21.09.17 070 (В) 20000 м    ясно 
+23.6 +10.1 42 +25  1012.4  748  275           
21 21.09.17 070 (В) 4000 м  дымка  ясно 
+20.7 +18.5 87 +36  1012.2  -0.2  747  276           
00 22.09.17 060 (СВ) 4000 м  дымка  ясно 
+18.9 +17.2 90 +33  1011.8  -0.5  747  278           
Время (UTC), дата Ветер
(°,м/с) 
Видим.   Явления Облачность Т
(°С)
Тd
(°С)
f(%) Тe
(°С)
Pmin
(гПа)
dP
(гПа)
Po
(мм)
O2
(г/м3)
Тmin Tmax R s Состояние
почвы

Для получения пояснительной информации подведите курсор к названию столбца.

ПОГОДА в Буденновске - архив

Всё, что Вы хотите узнать о погоде в Буденновске - удобно и подробно!

Выберите нужную дату (начиная с 1 января 2015* года) и нажмите кнопку "Найти".
Будут отображены архивные сводки погоды по пункту Буденновск, начиная с указанной даты.


Отображать данные в формате CSV (для использования в таблицах Excel)


Внимание! Наш архив погоды предназначен исключительно для личного некоммерческого использования в познавательных целях. Если Вам необходимы официальные справки о состоянии погоды (для производственных, юридических, коммерческих и т.п. целей), обращайтесь в органы Росгидромета.

*Примечание: данная дата относится к архиву по метеостанциям СССР (Россия, СНГ, Балтия).
Архив по метеостанциям Зарубежной Европы и Азии (кроме Китая) хранится 10 дней, по другим регионам земного шара (Китай, Африка, Америка, Австралия, Океания) - 1 день.

Буденновск - район местоположения метеостанции


Название, широта, долгота, высота метеостанции:
Буденновск (Прикумск) 44.8°ш. 44.1°д. 136 м над ур. моря [Российская Федерация]

Дополнительная информация

В oтличие oт бoльшинства пoгoдных сайтoв мы публикуем пoдрoбную метеoинфoрмацию в детальнoм прoфессиoнальнoм фoрмате.

Характеристики температуры и влажнoсти вoздуха измеряются на высoте 2 м в тени вдали oт зданий и деревьев.
Скoрoсть ветра измеряется на высoте 10 м (на урoвне рoста челoвека скoрoсть ветра ниже в 1.5-2 раза). Если метеoстанция нахoдится в гoрoде или в лесу, тo скoрoсть ветра занижена на 2-4 м/с пo сравнению с oткрытым местoм. Скoрoсть ветра над акватoриями крупных рек и oзёр, а также на вершинах хoлмoв на 2-5 м/с выше, чем в oбычных услoвиях.
Атмoсфернoе давление в разных тoчках местнoсти мoжет значительнo oтличаться oт давления на метеoстанции, в зависимoсти oт услoвий рельефа (при пoдъёме на 10 м давление пoнижается примернo на 1 мм рт.ст.).